| time (UTC) | temp F | wind direction | speed knots | gust knots | rain 1hr in | rain 24hr in | rain mn in | humidity % | barometer mb |
| 20260506234205 | 38 | 96 | 0.0 | 0.0 | 0.00 | 0.00 | 0.00 | 88 | 1013.1 |
| 20260506233704 | 38 | 96 | 0.0 | 0.0 | 0.00 | 0.00 | 0.00 | 88 | 1013.0 |
| 20260506233230 | 38 | 96 | 0.0 | 0.0 | 0.00 | 0.00 | 0.00 | 87 | 1013.0 |
| 20260506232705 | 39 | 96 | 0.0 | 0.0 | 0.00 | 0.00 | 0.00 | 87 | 1013.0 |
| 20260506230205 | 40 | 96 | 0.0 | 0.0 | 0.00 | 0.00 | 0.00 | 85 | 1013.0 |
| 20260506225705 | 40 | 96 | 0.0 | 1.7 | 0.00 | 0.00 | 0.00 | 85 | 1013.0 |
| 20260506225204 | 40 | 96 | 0.0 | 1.7 | 0.00 | 0.00 | 0.00 | 85 | 1013.0 |
| 20260506224704 | 41 | 96 | 0.0 | 2.6 | 0.00 | 0.00 | 0.00 | 84 | 1012.8 |
| 20260506224205 | 41 | 96 | 0.9 | 3.5 | 0.00 | 0.00 | 0.00 | 83 | 1012.8 |
| 20260506223705 | 42 | 96 | 0.0 | 3.5 | 0.00 | 0.00 | 0.00 | 83 | 1012.8 |
| 20260506223204 | 42 | 82 | 0.9 | 3.5 | 0.00 | 0.00 | 0.00 | 83 | 1012.7 |
| 20260506222705 | 42 | 83 | 1.7 | 3.5 | 0.00 | 0.00 | 0.00 | 84 | 1012.8 |
| 20260506222204 | 42 | 157 | 1.7 | 4.3 | 0.00 | 0.00 | 0.00 | 84 | 1012.8 |
| 20260506221705 | 42 | 155 | 2.6 | 4.3 | 0.00 | 0.00 | 0.00 | 84 | 1012.7 |
| 20260506221204 | 42 | 117 | 0.9 | 3.5 | 0.00 | 0.00 | 0.00 | 84 | 1012.7 |
| 20260506215705 | 43 | 104 | 0.9 | 2.6 | 0.00 | 0.00 | 0.00 | 83 | 1012.8 |
| 20260506215205 | 43 | 106 | 0.9 | 2.6 | 0.00 | 0.00 | 0.00 | 83 | 1012.8 |
| 20260506214205 | 43 | 106 | 0.9 | 3.5 | 0.00 | 0.00 | 0.00 | 84 | 1012.8 |
| 20260506212704 | 43 | 142 | 0.0 | 2.6 | 0.00 | 0.00 | 0.00 | 83 | 1012.7 |
| 20260506212205 | 43 | 142 | 0.0 | 3.5 | 0.00 | 0.00 | 0.00 | 83 | 1012.7 |
| 20260506211705 | 43 | 142 | 0.9 | 3.5 | 0.00 | 0.00 | 0.00 | 82 | 1012.8 |
| 20260506211204 | 44 | 130 | 0.9 | 3.5 | 0.00 | 0.00 | 0.00 | 82 | 1012.7 |
| 20260506210204 | 44 | 240 | 0.0 | 2.6 | 0.00 | 0.00 | 0.00 | 81 | 1012.6 |
| 20260506205705 | 45 | 241 | 0.9 | 3.5 | 0.00 | 0.00 | 0.00 | 80 | 1012.5 |
| 20260506205205 | 45 | 303 | 0.9 | 3.5 | 0.00 | 0.00 | 0.00 | 80 | 1012.4 |
| 20260506204205 | 46 | 0 | 1.7 | 1.7 | 0.00 | 0.00 | 0.00 | 80 | 1012.4 |
| 20260506202705 | 46 | 69 | 0.0 | 3.5 | 0.00 | 0.00 | 0.00 | 82 | 1012.3 |
| 20260506202204 | 45 | 69 | 0.0 | 3.5 | 0.00 | 0.00 | 0.00 | 82 | 1012.2 |
| 20260506201705 | 46 | 111 | 0.0 | 2.6 | 0.00 | 0.00 | 0.00 | 83 | 1012.2 |
| 20260506201205 | 45 | 111 | 0.0 | 2.6 | 0.00 | 0.00 | 0.00 | 83 | 1012.2 |
| 20260506200705 | 45 | 111 | 1.7 | 2.6 | 0.00 | 0.00 | 0.00 | 83 | 1012.3 |
| 20260506200205 | 45 | 85 | 0.9 | 1.7 | 0.00 | 0.00 | 0.00 | 82 | 1012.3 |
| 20260506195705 | 45 | 85 | 0.9 | 1.7 | 0.00 | 0.00 | 0.00 | 81 | 1012.2 |
| 20260506195204 | 45 | 85 | 0.0 | 1.7 | 0.00 | 0.00 | 0.00 | 80 | 1011.9 |
| 20260506194705 | 45 | 85 | 0.0 | 1.7 | 0.00 | 0.00 | 0.00 | 80 | 1011.9 |
| 20260506194205 | 45 | 85 | 0.0 | 1.7 | 0.00 | 0.00 | 0.00 | 79 | 1011.9 |
| 20260506193705 | 46 | 85 | 1.7 | 1.7 | 0.00 | 0.00 | 0.00 | 79 | 1011.8 |
| 20260506192704 | 46 | 85 | 0.0 | 0.9 | 0.00 | 0.00 | 0.00 | 76 | 1011.7 |
| 20260506192205 | 46 | 85 | 0.0 | 1.7 | 0.00 | 0.00 | 0.00 | 75 | 1011.7 |
| 20260506191722 | 47 | 85 | 0.0 | 1.7 | 0.00 | 0.00 | 0.00 | 74 | 1011.7 |
| 20260506191205 | 47 | 85 | 0.0 | 1.7 | 0.00 | 0.00 | 0.00 | 73 | 1011.6 |
| 20260506190704 | 48 | 85 | 1.7 | 1.7 | 0.00 | 0.00 | 0.00 | 72 | 1011.7 |
| 20260506190204 | 48 | 85 | 0.9 | 0.0 | 0.00 | 0.00 | 0.00 | 71 | 1011.5 |
| 20260506185705 | 49 | 85 | 0.0 | 0.0 | 0.00 | 0.00 | 0.00 | 71 | 1011.6 |
| 20260506185204 | 49 | 85 | 0.0 | 1.7 | 0.00 | 0.00 | 0.00 | 70 | 1011.5 |
| 20260506183704 | 51 | 85 | 0.9 | 5.2 | 0.00 | 0.00 | 0.00 | 66 | 1011.4 |
| 20260506183204 | 51 | 85 | 1.7 | 5.2 | 0.00 | 0.00 | 0.00 | 65 | 1011.4 |
| 20260506182704 | 51 | 66 | 3.5 | 7.8 | 0.00 | 0.00 | 0.00 | 65 | 1011.4 |
| 20260506182226 | 51 | 41 | 3.5 | 7.8 | 0.00 | 0.00 | 0.00 | 65 | 1011.4 |
| 20260506181705 | 52 | 65 | 3.5 | 7.8 | 0.00 | 0.00 | 0.00 | 65 | 1011.4 |
| 20260506181205 | 52 | 49 | 5.2 | 6.1 | 0.00 | 0.00 | 0.00 | 64 | 1011.4 |
| 20260506180705 | 52 | 72 | 4.3 | 5.2 | 0.00 | 0.00 | 0.00 | 64 | 1011.4 |
| 20260506180205 | 52 | 83 | 0.9 | 5.2 | 0.00 | 0.00 | 0.00 | 64 | 1011.4 |
| 20260506175205 | 52 | 72 | 0.9 | 5.2 | 0.00 | 0.00 | 0.00 | 62 | 1011.3 |
| 20260506174705 | 53 | 72 | 3.5 | 3.5 | 0.00 | 0.00 | 0.00 | 61 | 1011.3 |
| 20260506174205 | 53 | 89 | 1.7 | 4.3 | 0.00 | 0.00 | 0.00 | 61 | 1011.3 |
| 20260506173205 | 53 | 14 | 1.7 | 6.1 | 0.00 | 0.00 | 0.00 | 57 | 1011.4 |
| 20260506172705 | 53 | 34 | 3.5 | 5.2 | 0.00 | 0.00 | 0.00 | 56 | 1011.4 |
| 20260506172204 | 53 | 47 | 3.5 | 6.1 | 0.00 | 0.00 | 0.00 | 57 | 1011.4 |
| 20260506171204 | 53 | 27 | 3.5 | 6.1 | 0.00 | 0.00 | 0.00 | 56 | 1011.4 |
| 20260506170204 | 53 | 87 | 1.7 | 6.1 | 0.00 | 0.00 | 0.00 | 59 | 1011.4 |
| 20260506165205 | 53 | 72 | 2.6 | 6.1 | 0.00 | 0.00 | 0.00 | 59 | 1011.3 |
| 20260506164704 | 53 | 69 | 2.6 | 6.1 | 0.00 | 0.00 | 0.00 | 60 | 1011.1 |
| 20260506164204 | 53 | 75 | 3.5 | 6.1 | 0.00 | 0.00 | 0.00 | 56 | 1011.3 |
| 20260506163705 | 54 | 55 | 4.3 | 6.1 | 0.00 | 0.00 | 0.00 | 53 | 1011.3 |
| 20260506162705 | 54 | 65 | 5.2 | 7.8 | 0.00 | 0.00 | 0.00 | 52 | 1011.1 |
| 20260506162228 | 54 | 76 | 4.3 | 7.8 | 0.00 | 0.00 | 0.00 | 51 | 1011.1 |
| 20260506161212 | 55 | 90 | 2.6 | 5.2 | 0.00 | 0.00 | 0.00 | 51 | 1011.1 |
| 20260506160705 | 55 | 61 | 2.6 | 5.2 | 0.00 | 0.00 | 0.00 | 49 | 1011.1 |
| 20260506155704 | 57 | 104 | 0.9 | 7.8 | 0.00 | 0.00 | 0.00 | 48 | 1011.1 |
| 20260506155204 | 58 | 47 | 1.7 | 9.6 | 0.00 | 0.00 | 0.00 | 44 | 1011.1 |
| 20260506154705 | 58 | 73 | 3.5 | 9.6 | 0.00 | 0.00 | 0.00 | 44 | 1011.1 |
| 20260506154205 | 59 | 0 | 5.2 | 9.6 | 0.00 | 0.00 | 0.00 | 42 | 1011.1 |
| 20260506153704 | 59 | 314 | 1.7 | 9.6 | 0.00 | 0.00 | 0.00 | 43 | 1011.0 |
| 20260506152705 | 59 | 292 | 5.2 | 9.6 | 0.00 | 0.00 | 0.00 | 45 | 1011.1 |
| 20260506150705 | 59 | 303 | 7.8 | 10.4 | 0.00 | 0.00 | 0.00 | 43 | 1011.1 |
| 20260506145705 | 59 | 178 | 7.0 | 9.6 | 0.00 | 0.00 | 0.00 | 42 | 1011.3 |
| 20260506145204 | 59 | 186 | 1.7 | 9.6 | 0.00 | 0.00 | 0.00 | 41 | 1011.3 |
| 20260506144705 | 59 | 283 | 3.5 | 9.6 | 0.00 | 0.00 | 0.00 | 43 | 1011.3 |
| 20260506144205 | 59 | 183 | 5.2 | 9.6 | 0.00 | 0.00 | 0.00 | 44 | 1011.4 |
| 20260506143705 | 58 | 216 | 1.7 | 10.4 | 0.00 | 0.00 | 0.00 | 44 | 1011.4 |
| 20260506143204 | 58 | 245 | 4.3 | 10.4 | 0.00 | 0.00 | 0.00 | 46 | 1011.4 |
| 20260506142704 | 58 | 224 | 5.2 | 8.7 | 0.00 | 0.00 | 0.00 | 43 | 1011.4 |
| 20260506142205 | 59 | 321 | 3.5 | 8.7 | 0.00 | 0.00 | 0.00 | 46 | 1011.4 |
| 20260506141204 | 58 | 310 | 3.5 | 8.7 | 0.00 | 0.00 | 0.00 | 42 | 1011.6 |
| 20260506140705 | 57 | 330 | 6.1 | 8.7 | 0.00 | 0.00 | 0.00 | 46 | 1011.6 |
| 20260506140205 | 57 | 355 | 4.3 | 8.7 | 0.00 | 0.00 | 0.00 | 47 | 1011.8 |
| 20260506134704 | 57 | 354 | 4.3 | 10.4 | 0.00 | 0.00 | 0.00 | 47 | 1011.8 |
| 20260506134205 | 56 | 326 | 7.0 | 9.6 | 0.00 | 0.00 | 0.00 | 47 | 1011.8 |
| 20260506133705 | 56 | 345 | 7.0 | 12.2 | 0.00 | 0.00 | 0.00 | 48 | 1011.9 |
| 20260506132704 | 56 | 292 | 5.2 | 8.7 | 0.00 | 0.00 | 0.00 | 48 | 1011.9 |
| 20260506132204 | 56 | 317 | 6.1 | 8.7 | 0.00 | 0.00 | 0.00 | 50 | 1012.1 |
| 20260506131705 | 56 | 302 | 2.6 | 9.6 | 0.00 | 0.00 | 0.00 | 47 | 1012.1 |
| 20260506131205 | 56 | 268 | 5.2 | 9.6 | 0.00 | 0.00 | 0.00 | 50 | 1012.1 |
| 20260506130704 | 56 | 303 | 2.6 | 9.6 | 0.00 | 0.00 | 0.00 | 50 | 1012.1 |
| 20260506130204 | 55 | 269 | 2.6 | 7.8 | 0.00 | 0.00 | 0.00 | 53 | 1012.1 |
| 20260506125204 | 53 | 28 | 1.7 | 6.1 | 0.00 | 0.00 | 0.00 | 52 | 1012.3 |
| 20260506124704 | 53 | 306 | 2.6 | 7.8 | 0.00 | 0.00 | 0.00 | 51 | 1012.3 |
| 20260506124205 | 53 | 306 | 3.5 | 8.7 | 0.00 | 0.00 | 0.00 | 51 | 1012.3 |
| 20260506123705 | 53 | 336 | 3.5 | 9.6 | 0.00 | 0.00 | 0.00 | 52 | 1012.4 |
| 20260506123204 | 54 | 323 | 3.5 | 9.6 | 0.00 | 0.00 | 0.00 | 51 | 1012.4 |
| 20260506122705 | 55 | 333 | 5.2 | 6.1 | 0.00 | 0.00 | 0.00 | 52 | 1012.3 |
| 20260506122204 | 55 | 357 | 4.3 | 6.1 | 0.00 | 0.00 | 0.00 | 53 | 1012.3 |
| 20260506121204 | 53 | 298 | 4.3 | 7.8 | 0.00 | 0.00 | 0.00 | 53 | 1012.4 |
| 20260506120704 | 53 | 292 | 2.6 | 7.8 | 0.00 | 0.00 | 0.00 | 53 | 1012.5 |
| 20260506120205 | 53 | 278 | 3.5 | 7.8 | 0.00 | 0.00 | 0.00 | 54 | 1012.6 |
| 20260506115704 | 53 | 334 | 1.7 | 5.2 | 0.00 | 0.00 | 0.00 | 51 | 1012.6 |
| 20260506115204 | 53 | 252 | 2.6 | 7.8 | 0.00 | 0.00 | 0.00 | 53 | 1012.6 |
| 20260506114705 | 52 | 350 | 1.7 | 7.8 | 0.00 | 0.00 | 0.00 | 52 | 1012.6 |
| 20260506114204 | 52 | 323 | 3.5 | 5.2 | 0.00 | 0.00 | 0.00 | 51 | 1012.7 |
| 20260506113704 | 53 | 319 | 2.6 | 6.1 | 0.00 | 0.00 | 0.00 | 51 | 1012.6 |
| 20260506113204 | 53 | 279 | 1.7 | 6.1 | 0.00 | 0.00 | 0.00 | 53 | 1012.6 |
| 20260506112705 | 52 | 307 | 1.7 | 6.1 | 0.00 | 0.00 | 0.00 | 51 | 1012.8 |
| 20260506112227 | 53 | 327 | 1.7 | 5.2 | 0.00 | 0.00 | 0.00 | 53 | 1012.7 |
| 20260506111705 | 53 | 295 | 1.7 | 5.2 | 0.00 | 0.00 | 0.00 | 53 | 1012.7 |
| 20260506111204 | 53 | 303 | 2.6 | 7.8 | 0.00 | 0.00 | 0.00 | 50 | 1012.8 |
| 20260506110705 | 53 | 326 | 2.6 | 7.8 | 0.00 | 0.00 | 0.00 | 53 | 1012.8 |
| 20260506110204 | 53 | 279 | 1.7 | 7.8 | 0.00 | 0.00 | 0.00 | 51 | 1012.8 |
| 20260506105705 | 53 | 316 | 3.5 | 9.6 | 0.00 | 0.00 | 0.00 | 51 | 1012.8 |
| 20260506104705 | 53 | 334 | 4.3 | 9.6 | 0.00 | 0.00 | 0.00 | 52 | 1013.0 |
| 20260506103705 | 53 | 307 | 1.7 | 7.8 | 0.00 | 0.00 | 0.00 | 52 | 1012.8 |
| 20260506103205 | 53 | 324 | 3.5 | 7.8 | 0.00 | 0.00 | 0.00 | 51 | 1012.7 |
| 20260506102705 | 53 | 0 | 3.5 | 8.7 | 0.00 | 0.00 | 0.00 | 53 | 1012.8 |
| 20260506102205 | 53 | 336 | 4.3 | 8.7 | 0.00 | 0.00 | 0.00 | 54 | 1012.8 |
| 20260506101704 | 52 | 49 | 2.6 | 8.7 | 0.00 | 0.00 | 0.00 | 57 | 1012.8 |
| 20260506101205 | 51 | 0 | 5.2 | 6.1 | 0.00 | 0.00 | 0.00 | 57 | 1013.0 |
| 20260506100705 | 51 | 350 | 2.6 | 6.1 | 0.00 | 0.00 | 0.00 | 55 | 1013.0 |
| 20260506100222 | 51 | 0 | 2.6 | 6.1 | 0.00 | 0.00 | 0.00 | 55 | 1013.0 |
| 20260506095205 | 52 | 329 | 4.3 | 6.1 | 0.00 | 0.00 | 0.00 | 53 | 1013.0 |
| 20260506094705 | 53 | 293 | 3.5 | 6.1 | 0.00 | 0.00 | 0.00 | 53 | 1013.0 |
| 20260506093704 | 52 | 238 | 1.7 | 6.1 | 0.00 | 0.00 | 0.00 | 56 | 1012.8 |
| 20260506093204 | 52 | 312 | 4.3 | 6.1 | 0.00 | 0.00 | 0.00 | 57 | 1012.8 |
| 20260506092705 | 51 | 355 | 2.6 | 6.1 | 0.00 | 0.00 | 0.00 | 58 | 1012.7 |
| 20260506092204 | 51 | 285 | 1.7 | 6.1 | 0.00 | 0.00 | 0.00 | 55 | 1012.7 |
| 20260506091705 | 51 | 290 | 4.3 | 6.1 | 0.00 | 0.00 | 0.00 | 57 | 1012.7 |
| 20260506091205 | 51 | 299 | 0.9 | 9.6 | 0.00 | 0.00 | 0.00 | 57 | 1012.7 |
| 20260506090704 | 51 | 310 | 4.3 | 9.6 | 0.00 | 0.00 | 0.00 | 56 | 1012.7 |
| 20260506085704 | 50 | 324 | 5.2 | 5.2 | 0.00 | 0.00 | 0.00 | 57 | 1012.7 |
| 20260506085205 | 50 | 6 | 2.6 | 5.2 | 0.00 | 0.00 | 0.00 | 56 | 1012.7 |
| 20260506084704 | 50 | 337 | 2.6 | 5.2 | 0.00 | 0.00 | 0.00 | 56 | 1012.6 |
| 20260506084205 | 50 | 329 | 1.7 | 4.3 | 0.00 | 0.00 | 0.00 | 58 | 1012.7 |
| 20260506083705 | 49 | 321 | 2.6 | 4.3 | 0.00 | 0.00 | 0.00 | 58 | 1012.7 |
| 20260506083204 | 49 | 300 | 1.7 | 2.6 | 0.00 | 0.00 | 0.00 | 61 | 1012.6 |
| 20260506082704 | 49 | 285 | 0.0 | 2.6 | 0.00 | 0.00 | 0.00 | 63 | 1012.7 |
| 20260506082205 | 48 | 283 | 1.7 | 2.6 | 0.00 | 0.00 | 0.00 | 68 | 1012.7 |
| 20260506081705 | 48 | 193 | 1.7 | 2.6 | 0.00 | 0.00 | 0.00 | 71 | 1012.6 |
| 20260506081205 | 48 | 193 | 1.7 | 2.6 | 0.00 | 0.00 | 0.00 | 77 | 1012.6 |
| 20260506080705 | 47 | 99 | 0.9 | 0.0 | 0.00 | 0.00 | 0.00 | 83 | 1012.6 |
| 20260506080204 | 46 | 117 | 0.0 | 0.0 | 0.00 | 0.00 | 0.00 | 87 | 1012.5 |
| 20260506073205 | 41 | 134 | 0.0 | 0.0 | 0.00 | 0.00 | 0.00 | 94 | 1012.7 |
| 20260506072705 | 40 | 134 | 0.0 | 0.0 | 0.00 | 0.00 | 0.00 | 95 | 1012.6 |
| 20260506072205 | 40 | 134 | 0.0 | 0.0 | 0.00 | 0.00 | 0.00 | 95 | 1012.7 |
| 20260506071705 | 39 | 134 | 0.0 | 0.0 | 0.00 | 0.00 | 0.00 | 95 | 1012.6 |
| 20260506071204 | 38 | 134 | 0.0 | 0.0 | 0.00 | 0.00 | 0.00 | 95 | 1012.7 |
| 20260506070705 | 37 | 134 | 0.0 | 0.0 | 0.00 | 0.00 | 0.00 | 95 | 1012.7 |
| 20260506070204 | 37 | 134 | 0.0 | 0.0 | 0.00 | 0.00 | 0.00 | 95 | 1012.7 |
| 20260506062204 | 31 | 134 | 0.0 | 0.0 | 0.00 | 0.00 | 0.00 | 95 | 1012.7 |
| 20260506061705 | 30 | 134 | 0.0 | 0.0 | 0.00 | 0.00 | 0.00 | 95 | 1012.7 |
| 20260506060704 | 29 | 134 | 0.0 | 0.0 | 0.00 | 0.00 | 0.00 | 94 | 1012.8 |
| 20260506051205 | 28 | 134 | 0.0 | 0.0 | 0.00 | 0.00 | 0.00 | 93 | 1012.7 |
| 20260506050705 | 27 | 117 | 0.0 | 0.0 | 0.00 | 0.00 | 0.00 | 93 | 1012.6 |
| 20260506044705 | 27 | 117 | 0.0 | 0.0 | 0.00 | 0.00 | 0.00 | 93 | 1012.6 |
| 20260506044204 | 27 | 117 | 0.0 | 0.0 | 0.00 | 0.00 | 0.00 | 93 | 1012.5 |
| 20260506043704 | 27 | 117 | 0.0 | 0.0 | 0.00 | 0.00 | 0.00 | 93 | 1012.5 |
| 20260506042705 | 28 | 117 | 0.0 | 0.0 | 0.00 | 0.00 | 0.00 | 93 | 1012.6 |
| 20260506042204 | 28 | 117 | 0.0 | 0.0 | 0.00 | 0.00 | 0.00 | 93 | 1012.6 |
| 20260506041705 | 28 | 117 | 0.0 | 0.0 | 0.00 | 0.00 | 0.00 | 93 | 1012.5 |
| 20260506041222 | 28 | 117 | 0.0 | 0.0 | 0.00 | 0.00 | 0.00 | 93 | 1012.5 |
| 20260506040705 | 28 | 117 | 0.0 | 0.0 | 0.00 | 0.00 | 0.00 | 93 | 1012.6 |
| 20260506040204 | 28 | 117 | 0.0 | 0.0 | 0.00 | 0.00 | 0.00 | 93 | 1012.7 |
| 20260506035704 | 28 | 117 | 0.0 | 0.0 | 0.00 | 0.00 | 0.00 | 93 | 1012.7 |
| 20260506035204 | 28 | 117 | 0.0 | 0.0 | 0.00 | 0.00 | 0.00 | 93 | 1012.7 |
| 20260506034205 | 29 | 117 | 0.0 | 0.0 | 0.00 | 0.00 | 0.00 | 93 | 1012.8 |
| 20260506033705 | 29 | 117 | 0.0 | 0.0 | 0.00 | 0.00 | 0.00 | 93 | 1012.8 |
| 20260506033204 | 29 | 117 | 0.0 | 0.0 | 0.00 | 0.00 | 0.00 | 93 | 1012.8 |
| 20260506032705 | 29 | 117 | 0.0 | 0.0 | 0.00 | 0.00 | 0.00 | 93 | 1012.7 |
| 20260506032204 | 29 | 117 | 0.0 | 0.0 | 0.00 | 0.00 | 0.00 | 93 | 1012.8 |
| 20260506031205 | 29 | 117 | 0.0 | 0.0 | 0.00 | 0.00 | 0.00 | 93 | 1012.8 |
| 20260506030204 | 29 | 117 | 0.0 | 0.0 | 0.00 | 0.00 | 0.00 | 93 | 1013.0 |
| 20260506025704 | 29 | 117 | 0.0 | 0.0 | 0.00 | 0.00 | 0.00 | 93 | 1012.8 |
| 20260506025204 | 29 | 117 | 0.0 | 0.0 | 0.00 | 0.00 | 0.00 | 93 | 1012.8 |
| 20260506024705 | 29 | 117 | 0.0 | 0.0 | 0.00 | 0.00 | 0.00 | 93 | 1012.8 |
| 20260506024205 | 29 | 117 | 0.0 | 0.0 | 0.00 | 0.00 | 0.00 | 93 | 1012.7 |
| 20260506023705 | 29 | 117 | 0.0 | 0.0 | 0.00 | 0.00 | 0.00 | 93 | 1012.8 |
| 20260506023204 | 29 | 117 | 0.0 | 0.0 | 0.00 | 0.00 | 0.00 | 93 | 1012.7 |
| 20260506022705 | 29 | 117 | 0.0 | 0.0 | 0.00 | 0.00 | 0.00 | 93 | 1012.8 |
| 20260506022204 | 29 | 117 | 0.0 | 0.0 | 0.00 | 0.00 | 0.00 | 93 | 1012.8 |
| 20260506021704 | 29 | 117 | 0.0 | 0.0 | 0.00 | 0.00 | 0.00 | 93 | 1012.8 |
| 20260506021204 | 29 | 117 | 0.0 | 0.0 | 0.00 | 0.00 | 0.00 | 92 | 1012.8 |
| 20260506020705 | 30 | 117 | 0.0 | 0.0 | 0.00 | 0.00 | 0.00 | 92 | 1013.0 |
| 20260506020204 | 30 | 117 | 0.0 | 0.0 | 0.00 | 0.00 | 0.00 | 92 | 1013.0 |
| 20260506015705 | 30 | 117 | 0.0 | 0.0 | 0.00 | 0.00 | 0.00 | 92 | 1013.0 |
| 20260506015205 | 30 | 117 | 0.0 | 0.0 | 0.00 | 0.00 | 0.00 | 92 | 1012.7 |
| 20260506013705 | 30 | 117 | 0.0 | 0.0 | 0.00 | 0.00 | 0.00 | 92 | 1012.8 |
| 20260506013205 | 30 | 117 | 0.0 | 0.0 | 0.00 | 0.00 | 0.00 | 92 | 1012.8 |
| 20260506012705 | 30 | 117 | 0.0 | 0.0 | 0.00 | 0.00 | 0.00 | 92 | 1012.8 |
| 20260506012204 | 30 | 117 | 0.0 | 0.0 | 0.00 | 0.00 | 0.00 | 92 | 1013.0 |
| 20260506011704 | 31 | 117 | 0.0 | 0.0 | 0.00 | 0.00 | 0.00 | 92 | 1013.0 |
| 20260506011204 | 31 | 117 | 0.0 | 0.0 | 0.00 | 0.00 | 0.00 | 92 | 1013.0 |
| 20260506010705 | 31 | 117 | 0.0 | 0.0 | 0.00 | 0.00 | 0.00 | 92 | 1013.0 |
| 20260506005704 | 31 | 117 | 0.0 | 0.0 | 0.00 | 0.00 | 0.00 | 92 | 1013.1 |
| 20260506005205 | 31 | 117 | 0.0 | 0.0 | 0.00 | 0.00 | 0.00 | 92 | 1013.1 |
| 20260506004704 | 31 | 117 | 0.0 | 0.0 | 0.00 | 0.00 | 0.00 | 92 | 1013.2 |
| 20260506004205 | 31 | 117 | 0.0 | 0.0 | 0.00 | 0.00 | 0.00 | 92 | 1013.2 |
| 20260506003705 | 31 | 117 | 0.0 | 0.0 | 0.00 | 0.00 | 0.00 | 92 | 1013.3 |
| 20260506003205 | 31 | 117 | 0.0 | 0.0 | 0.00 | 0.00 | 0.00 | 92 | 1013.3 |
| 20260506002204 | 31 | 117 | 0.0 | 0.0 | 0.00 | 0.00 | 0.00 | 91 | 1013.3 |
| 20260506001705 | 32 | 117 | 0.0 | 0.0 | 0.00 | 0.00 | 0.00 | 92 | 1013.3 |
| 20260506000704 | 32 | 117 | 0.0 | 0.0 | 0.00 | 0.00 | 0.00 | 92 | 1013.4 |
| 20260506000205 | 32 | 117 | 0.0 | 0.0 | 0.00 | 0.00 | 0.00 | 92 | 1013.3 |
| 20260505235704 | 32 | 117 | 0.0 | 0.0 | 0.00 | 0.00 | 0.00 | 91 | 1013.3 |
| 20260505234704 | 32 | 117 | 0.0 | 0.0 | 0.00 | 0.00 | 0.00 | 91 | 1013.3 |